Regional Weather Roundup
Issued by NWS Sioux Falls, SD

Home | Current Version | Previous Version | Text Only | Print | Product List | Glossary Off
Versions: 1 2 3 4 5 6 7 8 9 10 11 12 13 14 15 16 17 18 19 20 21 22 23 24 25 26 27 28 29 30 31 32 33 34 35 36 37 38 39 40 41 42 43 44 45 46 47 48 49 50

000
ASUS43 KFSD 280302
RWRFSD

WEATHER ROUNDUP FOR SE SOUTH DAKOTA/SW MINNESOTA/NW IOWA
NATIONAL WEATHER SERVICE SIOUX FALLS SD
1000 PM CDT MON MAR 27 2017

NOTE: "FAIR" INDICATES FEW OR NO CLOUDS BELOW 12,000 FEET WITH NO
SIGNIFICANT WEATHER AND OR OBSTRUCTIONS TO VISIBILITY.


SDZ038>040-050-052>070-280400-
SOUTHEAST SOUTH DAKOTA

CITY           SKY/WX    TMP DP  RH WIND       PRES   REMARKS
BROOKINGS      MOCLDY    46  37  71 SE6       29.99R
CHAMBERLAIN    NOT AVBL
HURON          CLEAR     47  37  68 E5        29.97R
MADISON        FAIR      41  41 100 E9        29.99R
MITCHELL       CLEAR     49  36  61 S8        29.97R
SIOUX FALLS    PTCLDY    48  39  71 SE8       29.99R
WINNER         CLOUDY    52  36  54 SE12      29.92R
YANKTON        CLEAR     46  39  76 E8        29.99R
$$

MNZ071-072-080-081-089-090-097-098-280400-
SOUTHWEST MINNESOTA

CITY           SKY/WX    TMP DP  RH WIND       PRES   REMARKS
FAIRMONT       CLEAR     41  39  93 CALM      30.01R
JACKSON        CLEAR     41  36  81 S5        30.01R
LUVERNE        CLEAR     39  34  81 CALM      30.01R
MARSHALL       PTCLDY    44  37  76 SW3       30.00R
MONTEVIDEO     CLOUDY    43  34  70 E6        30.02R
PIPESTONE      CLOUDY    45  36  70 SE3       30.00R
REDWOOD FALLS  CLEAR     47  33  58 NE3       29.99R
TRACY          CLEAR     44  38  79 S6        30.00R
WINDOM         CLEAR     39  36  87 CALM      30.00R
WORTHINGTON    CLEAR     43  37  79 S5        30.01R
$$

IAZ001>003-012>014-020>022-031-032-NEZ013-014-SDZ071-280400-
NORTHWEST IOWA

CITY           SKY/WX    TMP DP  RH WIND       PRES   REMARKS
CHEROKEE       CLOUDY    47  40  79 NE3       30.01R
DENISON        CLOUDY    46  39  76 NE6       30.01S
ESTHERVILLE    CLEAR     38  38 100 SW5       30.00R
LE MARS        CLEAR     45  39  81 E5        30.02R
ORANGE CITY    CLEAR     41  37  87 CALM      30.00S
SHELDON        PTCLDY    41  37  87 S5        29.99R
SIOUX CITY     CLEAR     43  38  82 E7        30.00R
SPENCER        PTCLDY    44  38  79 E6        30.00S
STORM LAKE     CLOUDY    45  41  87 NE6       30.00S
$$

ABBREVIATIONS USED IN REMARKS
   TC - TEMPERATURE IN CELSIUS
  WCI - WIND CHILL INDEX
   HX - HEAT INDEX
  VSB - VISIBILITY





USA.gov is the U.S. government's official web portal to all federal, state and local government web resources and services.